"TOA5","AWS1","CR1000","7964","CR1000.Std.14","CPU:AWS1_114.CR1","64363","TBL110"
"TIMESTAMP","RECORD","Wind_spd_WVc(1)","Wind_spd_WVc(2)","Air_Temp_Avg","Humidity_Avg","SW_upper_Wm2_Avg","Rain_Tot","Press_Avg","Issui_Tot","Depth_cm","SR50A_Raw","Quality","Ground_Temp_Avg(1)","Ground_Temp_Avg(2)","SW_lower_Wm2_Avg","Albedo_Avg","SWC_per(1)","SWC_per(2)","Period(1)","Period(2)"
"TS","RN","","","","","","","","","","","","","","","","","","",""
"","","WVc","WVc","Avg","Avg","Avg","Tot","Avg","Tot","Smp","Smp","Smp","Avg","Avg","Avg","Avg","Smp","Smp","Smp","Smp"
"2016-10-16 00:00:00",257677,0.45,184.1,5.459,88.2,0,0,877.4474,0,-1.095,3.159,183,11.87,13.51,0.1061796,0,48.86,55.66,33.01,34.67
"2016-10-16 00:10:00",257678,0.402,183.4,5.631,87.1,0,0,877.4482,0,-1.199,3.161,197,11.86,13.51,0.2995783,0,48.86,55.72,33.01,34.68
"2016-10-16 00:20:00",257679,0.525,182.2,5.542,87.9,0,0,877.5629,0,-1.246,3.16,194,11.81,13.51,0.2540727,0,48.92,55.72,33.03,34.68
"2016-10-16 00:30:00",257680,0.32,179.1,5.646,87.3,0,0,877.486,0,-1.248,3.161,195,11.77,13.51,0.2540727,0,48.86,55.66,33.01,34.67
"2016-10-16 00:40:00",257681,0.395,179.8,5.463,88,0,0,877.6307,0,-1.25,3.162,189,11.77,13.51,0.05308982,0,48.86,55.72,33.01,34.68
"2016-10-16 00:50:00",257682,0.658,182.9,5.201,89.4,0,0,877.6642,0,-1.2,3.162,192,11.79,13.51,0,0,48.92,55.72,33.03,34.68
"2016-10-16 01:00:00",257683,0.574,183.6,5.201,89.7,0,0,877.6789,0,-1.404,3.165,192,11.74,13.52,0.01896065,0,48.92,55.66,33.03,34.67
"2016-10-16 01:10:00",257684,0.582,188.9,5.3,89.8,0,0,877.6982,0,-1.449,3.162,186,11.72,13.53,0.3071626,0,48.86,55.66,33.01,34.67
"2016-10-16 01:20:00",257685,0.182,183.6,5.768,86.6,0,0,877.6932,0,-1.694,3.161,195,11.68,13.54,0.4891848,0,48.92,55.66,33.03,34.67
"2016-10-16 01:30:00",257686,0.221,182.3,6.273,83,0,0,877.6912,0,-1.849,3.164,191,11.68,13.49,0.64087,0,48.92,55.66,33.03,34.67
"2016-10-16 01:40:00",257687,0.288,181.3,5.859,85.3,0,0,877.6785,0,-2.053,3.167,197,11.69,13.47,0.1403088,0,48.92,55.66,33.03,34.67
"2016-10-16 01:50:00",257688,0.664,181.9,5.423,87.6,0,0,877.5815,0,-1.857,3.169,196,11.73,13.48,0.01137639,0,48.86,55.66,33.01,34.67
"2016-10-16 02:00:00",257689,0.354,183.9,5.237,89.2,0,0,877.4979,0,-1.955,3.168,196,11.69,13.5,0.01137639,0,48.86,55.72,33.01,34.68
"2016-10-16 02:10:00",257690,0.31,178.3,5.296,88.5,0,0,877.4532,0,-1.656,3.167,187,11.65,13.5,0.02275278,0,48.86,55.66,33.01,34.67
"2016-10-16 02:20:00",257691,0.543,180.9,5.198,89.3,0,0,877.3914,0,-1.553,3.165,195,11.6,13.48,0.2237357,0,48.86,55.72,33.01,34.68
"2016-10-16 02:30:00",257692,0.628,186.6,5.352,88.2,0,0,877.3154,0,-1.856,3.168,190,11.6,13.47,0.3033704,0,48.86,55.66,33.01,34.67
"2016-10-16 02:40:00",257693,0.51,184.4,5.337,87.7,0,0,877.1986,0,-1.502,3.164,187,11.6,13.43,0.2123593,0,48.92,55.66,33.03,34.67
"2016-10-16 02:50:00",257694,0.513,180.4,5.519,86.5,0,0,877.1982,0,-1.599,3.163,195,11.63,13.42,0.3109547,0,48.92,55.72,33.03,34.68
"2016-10-16 03:00:00",257695,0.467,179.6,5.652,85.9,0,0,877.1944,0,-1.65,3.164,192,11.6,13.42,0.2237357,0,48.86,55.66,33.01,34.67
"2016-10-16 03:10:00",257696,0.442,184.6,5.612,86.4,0,0,877.1833,0,-1.702,3.165,192,11.55,13.42,0.1365167,0,48.86,55.66,33.01,34.67
"2016-10-16 03:20:00",257697,0.59,185.7,5.573,87.1,0,0,877.0149,0,-1.551,3.164,196,11.51,13.42,0,0,48.86,55.66,33.01,34.67
"2016-10-16 03:30:00",257698,0.62,191.7,5.449,87.5,0,0,876.991,0,-1.477,3.164,196,11.52,13.42,0,0,48.86,55.66,33.01,34.67
"2016-10-16 03:40:00",257699,0.64,188.3,5.383,87.8,0,0,876.9287,0,-1.502,3.164,190,11.55,13.45,0,0,48.92,55.66,33.03,34.67
"2016-10-16 03:50:00",257700,0.583,185.5,5.318,87.9,0,0,877.0121,0,-1.654,3.166,197,11.59,13.48,0,0,48.86,55.66,33.01,34.67
"2016-10-16 04:00:00",257701,0.465,186,5.389,87.3,0,0,877.1789,0,-0.843,3.157,187,11.57,13.49,0.05688196,0,48.92,55.66,33.03,34.67
"2016-10-16 04:10:00",257702,0.476,187.6,5.334,87,0,0,877.0945,0,-1.654,3.166,191,11.5,13.45,0.01896065,0,48.92,55.72,33.03,34.68
"2016-10-16 04:20:00",257703,0.631,187,5.163,87.5,0,0,877.0704,0,-1.278,3.164,190,11.43,13.42,0.01137639,0,48.86,55.66,33.01,34.67
"2016-10-16 04:30:00",257704,0.606,184.4,5.164,87.8,0,0,876.9395,0,-1.301,3.163,193,11.42,13.42,0.1441009,0,48.86,55.66,33.01,34.67
"2016-10-16 04:40:00",257705,0.6,186.2,5.369,86.2,0,0,876.9363,0,-1.3,3.162,193,11.44,13.39,0.2806177,0,48.86,55.66,33.01,34.67
"2016-10-16 04:50:00",257706,0.621,186.4,5.347,85.4,0,0,876.9256,0,-1.55,3.164,193,11.46,13.36,0.07205047,0,48.86,55.66,33.01,34.67
"2016-10-16 05:00:00",257707,0.417,187.4,5.484,84.3,0,0,876.97,0,-1.553,3.165,198,11.42,13.35,0.1441009,0,48.92,55.66,33.03,34.67
"2016-10-16 05:10:00",257708,0.619,185.6,5.256,85.2,0,0,876.939,0,-1.555,3.166,197,11.4,13.33,0,0,48.86,55.66,33.01,34.67
"2016-10-16 05:20:00",257709,0.604,184.7,5.245,85.8,0,0,876.941,0,-1.503,3.165,196,11.34,13.33,0,0,48.92,55.66,33.03,34.67
"2016-10-16 05:30:00",257710,0.612,190.7,5.236,85.3,0,0,876.9344,0,-2.56,3.174,197,11.34,13.35,0.04929769,0,48.92,55.66,33.03,34.67
"2016-10-16 05:40:00",257711,0.64,184.1,5.096,85.6,0,0,876.9343,0,-2.413,3.175,203,11.34,13.38,0,0,48.86,55.66,33.01,34.67
"2016-10-16 05:50:00",257712,0.538,187.5,5.123,84.3,0,0,876.9395,0,-2.311,3.173,197,11.4,13.41,0.09859539,0,48.92,55.66,33.03,34.67
"2016-10-16 06:00:00",257713,0.481,185.9,5.168,83.5,0,0,876.9468,0,-2.363,3.175,205,11.41,13.42,0.1592695,0,48.92,55.66,33.03,34.67
"2016-10-16 06:10:00",257714,0.586,187.4,4.979,84.1,0.4090287,0,876.9432,0,-2.334,3.172,199,11.4,13.42,0.4323029,0.374,48.92,55.66,33.03,34.67
"2016-10-16 06:20:00",257715,0.329,179.1,5.664,78.63,3.704857,0,876.9493,0,-2.462,3.174,203,11.33,13.41,1.213482,0.37,48.86,55.66,33.01,34.67
"2016-10-16 06:30:00",257716,0.441,180.1,5.323,80.8,7.578832,0,876.9481,0,-1.601,3.164,197,11.25,13.35,1.1566,0.15,48.86,55.66,33.01,34.67
"2016-10-16 06:40:00",257717,0.344,180,5.416,79.93,12.81361,0,877.0938,0,-2.259,3.172,198,11.27,13.3,1.945363,0.15,48.92,55.66,33.03,34.67
"2016-10-16 06:50:00",257718,0.303,178.2,5.354,81,31.47948,0,877.1907,0,-2.233,3.171,203,11.29,13.26,5.805751,0.194,48.92,55.66,33.03,34.67
"2016-10-16 07:00:00",257719,0.45,171.9,5.801,81,40.09662,0,877.2023,0,-2.604,3.17,198,11.29,13.26,8.475411,0.215,48.92,55.66,33.03,34.67
"2016-10-16 07:10:00",257720,0.195,171.8,6.344,79.82,36.23838,0,877.3939,0,-2.047,3.164,205,11.29,13.25,8.141704,0.227,48.92,55.66,33.03,34.67
"2016-10-16 07:20:00",257721,0.127,172.1,7.014,75.41,93.38441,0,877.4356,0,-2.462,3.161,203,11.29,13.25,10.57625,0.15,48.92,55.66,33.03,34.67
"2016-10-16 07:30:00",257722,0.037,136.7,8.14,75.24,93.90356,0,877.4186,0,-2.214,3.152,267,11.27,13.26,12.55574,0.176,48.92,55.66,33.03,34.67
"2016-10-16 07:40:00",257723,0.097,101.5,9.04,72,37.92168,0,877.3388,0,-2.44,3.153,217,11.25,13.32,16.1886,0.426,48.92,55.66,33.03,34.67
"2016-10-16 07:50:00",257724,0.353,127.6,9.15,74.36,41.24447,0,877.2448,0,-1.508,3.141,202,11.25,13.31,16.10117,0.391,48.86,55.66,33.01,34.67
"2016-10-16 08:00:00",257725,0.178,120.7,9.59,75.11,46.71468,0,877.2076,0,-1.144,3.134,213,11.22,13.3,17.23337,0.372,48.86,55.66,33.01,34.67
"2016-10-16 08:10:00",257726,0.159,145.6,10.26,74.25,52.73339,0,877.28,0,-1.624,3.136,195,11.19,13.27,17.08352,0.332,48.92,55.66,33.03,34.67
"2016-10-16 08:20:00",257727,0.16,359.6,10.84,61.21,63.42381,0,877.1949,0,-1.706,3.134,243,11.17,13.25,17.64712,0.312,48.92,55.66,33.03,34.67
"2016-10-16 08:30:00",257728,0.195,311.8,10.64,60.22,48.33614,0,877.319,0,-1.769,3.138,200,11.14,13.24,17.70726,0.368,48.92,55.66,33.03,34.67
"2016-10-16 08:40:00",257729,0.22,316.2,10.63,59.47,104.2357,0,877.3464,0,-2.548,3.143,218,11.12,13.24,17.41519,0.245,48.92,55.66,33.03,34.67
"2016-10-16 08:50:00",257730,0.297,335.5,10.94,59.86,56.62732,0,877.3519,0,-1.736,3.136,196,11.1,13.23,17.47199,0.309,48.92,55.66,33.03,34.67
"2016-10-16 09:00:00",257731,0.397,342.1,10.86,60.28,56.85137,0,877.1686,0,-1.512,3.135,199,11.09,13.24,17.27485,0.304,48.92,55.66,33.03,34.67
"2016-10-16 09:10:00",257732,0.346,336.2,11.22,57.57,55.67187,0,877.0731,0,-1.644,3.132,198,11.09,13.24,18.24531,0.328,48.92,55.66,33.03,34.67
"2016-10-16 09:20:00",257733,0.44,352.7,11.54,56.21,53.17921,0,877.0382,0,-0.916,3.122,191,11.08,13.24,18.77982,0.353,48.92,55.6,33.03,34.65
"2016-10-16 09:30:00",257734,0.184,14.29,12.12,55.68,56.92213,0,877.0179,0,-1.188,3.123,194,11.09,13.22,19.46217,0.343,48.92,55.66,33.03,34.67
"2016-10-16 09:40:00",257735,0.378,79.42,12.34,54.34,63.36211,0,876.9474,0,-0.737,3.116,196,11.15,13.2,19.99666,0.316,48.86,55.66,33.01,34.67
"2016-10-16 09:50:00",257736,0.449,106.1,12.77,55.45,116.3274,0,876.7587,0,-1.276,3.122,196,11.16,13.19,22.99868,0.241,48.92,55.66,33.03,34.67
"2016-10-16 10:00:00",257737,0.375,341.2,12.44,53.04,108.3531,0,876.7584,0,-0.929,3.118,195,11.2,13.18,29.91549,0.278,48.92,55.66,33.03,34.67
"2016-10-16 10:10:00",257738,0.586,27.19,13.02,46.88,173.2767,0,876.7246,0,-0.866,3.113,204,11.13,13.16,40.39396,0.233,48.92,55.6,33.03,34.65
"2016-10-16 10:20:00",257739,0.473,35.59,13.3,50.23,155.4676,0,876.5498,0,-0.502,3.111,200,11.1,13.13,38.30597,0.247,48.86,55.66,33.01,34.67
"2016-10-16 10:30:00",257740,0.699,350.2,13.15,53.64,120.1044,0,876.5056,0,-1.669,3.122,235,11.08,13.08,35.53277,0.3,48.92,55.66,33.03,34.67
"2016-10-16 10:40:00",257741,0.54,324.2,13.24,55.99,84.19637,0,876.5056,0,-1.189,3.119,187,11.07,13.02,30.93843,0.4,48.92,55.66,33.03,34.67
"2016-10-16 10:50:00",257742,0.415,354.1,13.33,57.44,64.31558,0,876.5056,0,-0.484,3.11,198,11.07,13.02,33.79914,0.53,48.86,55.66,33.01,34.67
"2016-10-16 11:00:00",257743,0.351,331.8,13.28,58.9,74.50263,0,876.4318,0,-0.815,3.113,192,11.07,13.02,40.48755,0.566,48.92,55.66,33.03,34.67
"2016-10-16 11:10:00",257744,0.327,295.3,13.25,61.89,65.74979,0,876.2529,0,-0.543,3.112,192,11.15,13.01,49.22998,0.753,48.92,55.6,33.03,34.65
"2016-10-16 11:20:00",257745,0.465,10.01,13.3,61.13,74.47108,0,876.1223,0,-0.833,3.112,191,11.15,12.99,65.31659,0.9,48.92,55.6,33.03,34.65
"2016-10-16 11:30:00",257746,0.491,325.3,13.73,58.85,496.7097,0,875.8779,0,-0.7,3.11,186,11.14,12.96,97.35719,0.259,48.92,55.66,33.03,34.67
"2016-10-16 11:40:00",257747,0.475,331.4,13.84,57.16,823.1985,0,875.621,0,-2.015,3.12,191,11.19,12.99,109.6201,0.133,48.86,55.66,33.01,34.67
"2016-10-16 11:50:00",257748,0.575,352.7,14.22,56.68,833.8772,0,875.4272,0,-1.521,3.114,195,11.22,13.01,120.9964,0.145,48.86,55.66,33.01,34.67
"2016-10-16 12:00:00",257749,0.28,270.8,14.64,55.73,827.016,0,875.1448,0,-0.398,3.101,179,11.23,13.01,128.0401,0.155,48.86,55.6,33.01,34.65
"2016-10-16 12:10:00",257750,0.512,297.5,14.53,56.96,788.0847,0,874.9208,0,-0.54,3.104,195,11.22,12.98,126.7506,0.16,48.86,55.6,33.01,34.65
"2016-10-16 12:20:00",257751,0.287,291.8,14.59,56.67,803.9075,0,874.6779,0,-1.425,3.113,185,11.17,12.95,133.4003,0.166,48.86,55.6,33.01,34.65
"2016-10-16 12:30:00",257752,0.476,199.8,14.77,55.37,791.3615,0,874.6036,0,-1.399,3.11,191,11.13,12.88,131.8751,0.167,48.92,55.6,33.03,34.65
"2016-10-16 12:40:00",257753,0.327,327.7,15.12,55.96,779.2194,0,874.4235,0,-1.674,3.108,195,11.11,12.78,130.1107,0.167,48.86,55.66,33.01,34.67
"2016-10-16 12:50:00",257754,0.383,293,15.16,55.79,763.563,0,874.2693,0,-0.92,3.107,191,11.15,12.76,124.893,0.164,48.86,55.6,33.01,34.65
"2016-10-16 13:00:00",257755,0.607,358.7,14.95,56.22,746.4491,0,874.1535,0,-1.064,3.107,190,11.22,12.76,120.13,0.161,48.86,55.6,33.01,34.65
"2016-10-16 13:10:00",257756,0.433,348.5,14.85,56.54,725.9863,0,874.1303,0,-1.379,3.111,194,11.26,12.76,111.3454,0.153,48.86,55.6,33.01,34.65
"2016-10-16 13:20:00",257757,0.6,339.6,14.75,56.98,707.3566,0,873.9788,0,-2.511,3.122,186,11.2,12.76,97.75813,0.138,48.86,55.6,33.01,34.65
"2016-10-16 13:30:00",257758,0.418,336.4,14.74,57.73,683.387,0,873.8868,0,-1.921,3.116,190,11.2,12.76,78.95009,0.115,48.86,55.6,33.01,34.65
"2016-10-16 13:40:00",257759,0.476,301.1,14.69,58.19,658.2303,0,873.8914,0,-1.367,3.112,196,11.21,12.77,54.30702,0.082,48.86,55.55,33.01,34.64
"2016-10-16 13:50:00",257760,0.329,155.1,14.51,59.09,324.8376,0,873.8943,0,-1.632,3.115,196,11.26,12.78,19.041,0.102,48.86,55.55,33.01,34.64
"2016-10-16 14:00:00",257761,0.45,14.45,14.53,59.68,47.63552,0,873.8718,0,-1.433,3.113,200,11.3,12.78,10.57788,0.224,48.86,55.6,33.01,34.65
"2016-10-16 14:10:00",257762,0.475,316.6,14.42,59.96,56.47701,0,873.7537,0,-0.438,3.105,201,11.33,12.8,8.850938,0.157,48.81,55.6,33,34.65
"2016-10-16 14:20:00",257763,0.551,30.17,14.36,60.08,51.30625,0,873.7521,0,-0.79,3.106,203,11.39,12.83,7.048049,0.137,48.81,55.55,33,34.64
"2016-10-16 14:30:00",257764,0.271,330.6,14.39,60.98,43.84518,0,873.9185,0,-1.211,3.111,203,11.39,12.84,5.50228,0.125,48.81,55.6,33,34.65
"2016-10-16 14:40:00",257765,0.382,38.57,14.44,61.31,42.77689,0,873.9805,0,-1.465,3.113,208,11.44,12.85,5.267423,0.123,48.81,55.55,33,34.64
"2016-10-16 14:50:00",257766,0.451,4.267,14.34,63.14,45.50474,0,874.1946,0,-3.318,3.132,217,11.5,12.84,5.574404,0.122,48.81,55.6,33,34.65
"2016-10-16 15:00:00",257767,0.175,315.2,14.17,65.99,60.20799,0,874.2328,0,-0.965,3.11,249,11.56,12.85,7.920138,0.131,48.81,55.55,33,34.64
"2016-10-16 15:10:00",257768,0.333,81.4,14.21,64.06,62.971,0,874.2139,0,-1.068,3.111,203,11.62,12.86,8.446887,0.134,48.81,55.55,33,34.64
"2016-10-16 15:20:00",257769,0.111,23.17,13.8,67.03,76.60515,0,874.2286,0,-1.267,3.116,205,11.61,12.89,10.26587,0.134,48.81,55.6,33,34.65
"2016-10-16 15:30:00",257770,0.155,14.32,13.5,69.57,90.28255,0,874.2307,0,-1.2,3.117,210,11.64,12.89,12.6798,0.14,48.81,55.6,33,34.65
"2016-10-16 15:40:00",257771,0.154,9.8,13.28,69.38,70.69793,0,874.2307,0,-1.157,3.118,217,11.71,12.89,9.443537,0.133,48.81,55.55,33,34.64
"2016-10-16 15:50:00",257772,0.193,349.2,12.93,71.55,93.74905,0,874.2371,0,-1.061,3.118,219,11.74,12.89,14.09709,0.15,48.81,55.55,33,34.64
"2016-10-16 16:00:00",257773,0.205,28.3,13.01,71.28,102.2738,0,874.3171,0,-1.108,3.118,232,11.74,12.89,16.13208,0.159,48.81,55.6,33,34.65
"2016-10-16 16:10:00",257774,0.047,13.6,12.83,73.22,48.54293,0,874.3676,0,-1.168,3.12,209,11.72,12.89,5.934421,0.121,48.75,55.6,32.99,34.65
"2016-10-16 16:20:00",257775,0.06,291.7,12.5,75.59,32.22439,0,874.4224,0,-1.179,3.122,201,11.78,12.89,3.725119,0.113,48.81,55.6,33,34.65
"2016-10-16 16:30:00",257776,0.016,289.3,12.35,76.44,21.66765,0,874.3192,0,-1.029,3.121,208,11.83,12.9,2.493518,0.112,48.81,55.55,33,34.64
"2016-10-16 16:40:00",257777,0.143,6.693,12.27,76.41,33.05761,0,874.2433,0,-1.232,3.123,201,11.84,12.9,4.839243,0.144,48.75,55.55,32.99,34.64
"2016-10-16 16:50:00",257778,0.049,69.32,12.1,78.49,20.29992,0,874.2665,0,-1.34,3.125,201,11.85,12.92,2.838366,0.137,48.75,55.6,32.99,34.65
"2016-10-16 17:00:00",257779,0.213,120.9,11.97,78.71,10.89475,0,874.2307,0,-1.297,3.126,200,11.89,12.93,1.170968,0.098,48.75,55.6,32.99,34.65
"2016-10-16 17:10:00",257780,0.373,71.39,11.79,77.28,2.798362,0,874.2202,0,-1.068,3.124,199,11.89,12.93,0.01515816,0.003,48.75,55.6,32.99,34.65
"2016-10-16 17:20:00",257781,0.377,60.01,11.61,78.31,0.02751198,0,874.2328,0,-1.18,3.127,201,11.92,12.93,0,0,48.75,55.6,32.99,34.65
"2016-10-16 17:30:00",257782,0.394,54.96,11.32,79.75,0,0,874.2728,0,-0.981,3.126,195,11.97,12.93,0,0,48.75,55.55,32.99,34.64
"2016-10-16 17:40:00",257783,0.162,72.67,11.18,80.8,0,0,874.4814,0,-0.907,3.126,200,11.97,12.93,0,0,48.75,55.55,32.99,34.64
"2016-10-16 17:50:00",257784,0.297,97.1,11.05,81.6,0,0,874.4877,0,-1.063,3.128,195,11.94,12.93,0,0,48.75,55.55,32.99,34.64
"2016-10-16 18:00:00",257785,0.249,103.9,10.98,82.7,0,0,874.5277,0,-0.966,3.127,200,11.94,12.94,0,0,48.75,55.55,32.99,34.64
"2016-10-16 18:10:00",257786,0.073,121.7,11.09,82.6,0,0,874.7952,0,-0.823,3.126,211,11.98,12.95,0.00378971,0,48.7,55.55,32.97,34.64
"2016-10-16 18:20:00",257787,0.432,148.4,10.93,83.8,0,0,874.612,0,-1.188,3.13,199,12.04,12.96,0,0,48.75,55.55,32.99,34.64
"2016-10-16 18:30:00",257788,0.272,156.6,10.95,82.7,0,0,874.7089,0,-0.75,3.125,216,12.03,12.96,0,0,48.7,55.55,32.97,34.64
"2016-10-16 18:40:00",257789,0.396,120.8,10.97,82.5,0,0,874.5003,0,-1.058,3.128,202,12.03,12.96,0,0,48.7,55.55,32.97,34.64
"2016-10-16 18:50:00",257790,0.307,152.6,10.99,82.2,0,0,874.3761,0,-0.939,3.127,200,12.05,12.97,0,0,48.75,55.55,32.99,34.64
"2016-10-16 19:00:00",257791,0.196,286.9,10.96,82.5,0,0,874.4708,0,-1.226,3.13,216,12.08,12.98,0.003790338,0,48.7,55.55,32.97,34.64
"2016-10-16 19:10:00",257792,0.207,8.6,10.93,82.7,0,0,874.4835,0,-1.413,3.132,211,12.12,12.99,0.01137137,0,48.75,55.55,32.99,34.64
"2016-10-16 19:20:00",257793,0.178,352.1,10.95,82.6,0,0,874.4772,0,-1.207,3.13,208,12.13,12.98,0.003790516,0,48.7,55.55,32.97,34.64
"2016-10-16 19:30:00",257794,0.389,7.352,10.97,81.7,0,0,874.4835,0,-1.281,3.131,201,12.13,12.96,0,0,48.7,55.55,32.97,34.64
"2016-10-16 19:40:00",257795,0.507,41.9,10.84,83,0,0,874.6204,0,-1.306,3.132,200,12.12,12.95,0,0,48.7,55.55,32.97,34.64
"2016-10-16 19:50:00",257796,0.212,105.5,10.8,83.4,0,0,874.5046,0,-1.154,3.13,198,12.12,12.95,0,0,48.7,55.55,32.97,34.64
"2016-10-16 20:00:00",257797,0.467,122.8,10.79,83.9,0,0,874.475,0,-1.415,3.133,199,12.13,12.96,0,0,48.7,55.49,32.97,34.63
"2016-10-16 20:10:00",257798,0.258,37.68,10.77,84.3,0,0,874.3487,0,-1.417,3.133,199,12.13,12.96,0,0,48.7,55.55,32.97,34.64
"2016-10-16 20:20:00",257799,0.213,335,10.72,84.7,0,0,874.1381,0,-1.294,3.132,201,12.14,12.98,0.2501774,0,48.7,55.55,32.97,34.64
"2016-10-16 20:30:00",257800,0.3,315.6,10.51,86.2,0,0,873.978,0,-4.844,3.169,178,12.14,13,0.2425984,0,48.7,55.49,32.97,34.63
"2016-10-16 20:40:00",257801,0.154,224.1,10.44,86.9,0,0,873.8495,0,-4.643,3.167,192,12.14,13.02,0.4548771,0,48.7,55.55,32.97,34.64
"2016-10-16 20:50:00",257802,0.036,254.6,10.25,89.3,0,0,873.7969,0,-1.514,3.137,277,12.14,13.03,0.4018115,0,48.7,55.55,32.97,34.64
"2016-10-16 21:00:00",257803,0.206,160,10.27,89.2,0,0,873.7168,0,-4.467,3.166,198,12.14,13.07,0.4548796,0,48.7,55.55,32.97,34.64
"2016-10-16 21:10:00",257804,0.184,78.88,10.14,90.5,0,0,873.5673,0,-4.9,3.171,191,12.14,13.11,0.4548759,0,48.7,55.55,32.97,34.64
"2016-10-16 21:20:00",257805,0.159,168.6,10.11,90.3,0,0,873.483,0,-2.866,3.151,230,12.14,13.12,0.454878,0,48.7,55.55,32.97,34.64
"2016-10-16 21:30:00",257806,0.266,0.856,10.02,90.3,0,0,873.4852,0,-4.498,3.167,201,12.15,13.13,0.4548848,0,48.65,55.55,32.96,34.64
"2016-10-16 21:40:00",257807,0.383,36.06,10.13,88.6,0,0,873.4662,0,-4.704,3.169,198,12.15,13.15,0.6558044,0,48.7,55.55,32.97,34.64
"2016-10-16 21:50:00",257808,0.293,13.49,10.08,88.7,0,0,873.3693,0,-1.193,3.135,263,12.15,13.15,0.4624794,0,48.7,55.55,32.97,34.64
"2016-10-16 22:00:00",257809,0.461,106.5,9.95,90.1,0,0,873.1165,0,-3.687,3.16,218,12.15,13.15,0.454896,0,48.65,55.55,32.96,34.64
"2016-10-16 22:10:00",257810,0.373,131.3,9.97,88.6,0,0,873.0934,0,-4.909,3.172,200,12.14,13.15,0.454889,0,48.7,55.55,32.97,34.64
"2016-10-16 22:20:00",257811,0.386,142.5,10.15,83.3,0,0,873.1208,0,-0.752,3.129,206,12.14,13.15,0.8984163,0,48.7,55.55,32.97,34.64
"2016-10-16 22:30:00",257812,0.132,165,10.42,78.2,0,0,873.1461,0,-0.981,3.131,233,12.16,13.14,1.368485,0,48.7,55.49,32.97,34.63
"2016-10-16 22:40:00",257813,0.196,103.9,9.96,82.9,0,0,872.9628,0,-5.248,3.177,200,12.16,13.12,0.7695385,0,48.7,55.55,32.97,34.64
"2016-10-16 22:50:00",257814,0.203,274.3,9.41,87.4,0,0,872.8849,0,-1.641,3.143,326,12.16,13.14,0.4549002,0,48.7,55.49,32.97,34.63
"2016-10-16 23:00:00",257815,0.206,303.4,9.17,88.4,0,0,872.7142,0,-0.4,3.132,255,12.16,13.15,0.4700637,0,48.7,55.49,32.97,34.63
"2016-10-16 23:10:00",257816,0.251,306,9.3,83.9,0,0,872.7733,0,-3.779,3.165,222,12.16,13.15,0.9666633,0,48.7,55.55,32.97,34.64
"2016-10-16 23:20:00",257817,0.149,280.1,8.95,90.1,0,0.5,872.7438,0,-3.555,3.164,196,12.16,13.15,0.5079721,0,48.7,55.49,32.97,34.63
"2016-10-16 23:30:00",257818,0.263,7.842,9.13,87.9,0,0,872.7059,0,-1.775,3.146,221,12.16,13.15,0.9401274,0,48.65,55.55,32.96,34.64
"2016-10-16 23:40:00",257819,0.335,221.7,9.07,88.5,0,0,872.5618,0,-1.672,3.145,237,12.16,13.15,0.9135916,0,48.7,55.49,32.97,34.63
"2016-10-16 23:50:00",257820,0.294,151.1,8.94,87.9,0,0,872.3031,0,-1.319,3.142,214,12.16,13.15,0.7278406,0,48.65,55.49,32.96,34.63
